Other Surface Observations
Issued by NWS

Home | Current Version | Previous Version | Text Only | Print | Product List | Glossary On
Versions: 1 2 3 4 5 6 7 8 9 10 11 12 13 14 15 16 17 18 19 20 21 22 23 24 25 26 27 28 29 30 31 32 33 34 35 36 37 38 39 40 41 42 43 44 45 46 47 48 49 50
000
SXUS52 KTAE 040411
OSOTAE
OSOTAE
North Florida/South Alabama/Southwest Georgia Weather Roundup
National Weather Service Tallahassee Florida
1200 AM EDT MON MAY 04 2015

Note: "fair" indicates few or no clouds below 12,000 feet with no
significant weather and/or obstructions to visibility.

!FLZ017-115-028-034-025-040500
...North Florida...

CITY           SKY/WX    TMP DP  RH WIND       PRES   REMARKS
TALLAHASSEE    CLEAR     61  55  81 CALM      30.17R
APALACHICOLA   CLEAR     64  58  80 CALM      30.16S
PERRY          CLEAR     66  53  63 E6        30.20R
CROSS CITY       N/A     69  51  52 VRB3      30.19R
JACKSONVILLE   CLEAR     60  54  80 CALM      30.21F
$$

!FLZ112-006-005-002-011-040500
...Florida Panhandle...

CITY           SKY/WX    TMP DP  RH WIND       PRES   REMARKS
MARIANNA       MOCLDY    68  63  84 CALM      30.17R
BONIFAY        NOT AVBL
PANAMA CITY NW FAIR      63  61  93 CALM      30.16S
TYNDALL AFB    CLEAR     63  60  88 CALM      30.17R
TYND DRONE APT FAIR      62  60  93 CALM      30.16S
DE FUNIAK SPR  FAIR      64  63  96 CALM      30.19R
EGLIN AFB      PTCLDY    71  62  75 S2        30.17R
DESTIN         CLEAR     73  63  70 S5        30.16S
HURLBURT       CLEAR     72  61  69 SE5       30.15S
CRESTVIEW      CLEAR     60  59  96 CALM      30.19R
PENSACOLA      CLEAR     70  62  76 SE10      30.16R
$$

!ALZ063-066-040500
...South Alabama...

CITY           SKY/WX    TMP DP  RH WIND       PRES   REMARKS
DOTHAN         PTCLDY    67  58  72 SW5       30.21R
OZARK CAIRNS   MOCLDY    66  59  77 SW6       30.18R
FT RUCKER HELI PTCLDY    62  57  83 CALM      30.17R
RUCKER HELI 3  FAIR      68  60  77 SW7       30.19R
RUCKER HELI 2  FAIR      65  59  81 CALM      30.18R
FLORALA APT    CLEAR     66  62  87 S5        30.19S
ANDALUSIA      CLEAR     67  57  70 CALM      30.18R
TROY           PTCLDY    59  55  87 CALM      30.18R
EUFALA         FAIR      57  55  93 CALM      30.17R
MOBILE         PTCLDY    62  60  93 CALM      30.16S
$$

!GAZ120>161-040500
...Southwest and South Central Georgia...

CITY           SKY/WX    TMP DP  RH WIND       PRES   REMARKS
THOMASVILLE    FAIR      64  55  72 SE5       30.20R
BAINBRIDGE     CLEAR     64  55  72 SW6       30.19R
MOODY AFB      CLEAR     64  51  64 SE7       30.19S
VALDOSTA       CLEAR     65  52  62 SE5       30.20R
MOULTRIE       CLEAR     68  54  60 SE6       30.21R
BLAKELY        CLEAR     61  61 100 CALM      30.19R
ALBANY         PTCLDY    64  55  72 CALM      30.20R
TIFTON         FAIR      67  50  53 SE6       30.20S
FITZGERALD     FAIR      66  49  54 SE3       30.23S
CORDELE        FAIR      61  56  84 CALM      30.21R
AMERICUS       FAIR      61  54  77 CALM      30.21S
HOMERVILLE     FAIR      64  55  72 CALM      30.22R
$$

!GMZ750-755-770-775-040500
...Coastal and Buoy Obs...

STATION/POSITION TIME  TEMP    WIND        PRES    VSBY  WAVE
                       AIR SEA DIR/SP/G                  HT/PER
                 (UTC) (F)     (DEG/KT/KT) (MB)    (MI)  (FT/S)
KEATON BEACH     0400   67      90/  7/  8 1022.1R
CEDAR KEY        0400   71      80/ 14/ 16 1022.4R
C TOWER          0400   73      50/  4/  4 1021.1R
APALACHICOLA BUO 0350   74 74   40/ 10/ 14 1020.5S         3/ 6
PANAMA CITY BUOY 0350   74 75  110/ 10/ 14 1020.8F         4/ 7
MOBILE BUOY      0350   75 76  130/ 21/ 25 1020.4R         4/ 5
ORANGE BCH AL BU 0350   74 75  140/ 16/ 17 1020.2R         3/ 5
$$



USA.gov is the U.S. government's official web portal to all federal, state and local government web resources and services.